Diyarbakir, Turkey

12:11 PM +03 on May 25, 2017 (GMT +0300)
Diyarbakir

Weather History for LTCC - March, 2013

Change the Weather History Date:

Saturday, March 30, 2013

  Actual Average Record
Temperature  
Mean Temperature 54 °F -  
Max Temperature 64 °F 68 °F 77 °F (2008)
Min Temperature 45 °F 46 °F 30 °F (2003)
Degree Days  
Heating Degree Days 10    
Growing Degree Days 4 (Base 50)    
Moisture  
Dew Point 48 °F    
Average Humidity 82    
Maximum Humidity 100    
Minimum Humidity 55    
Precipitation  
Precipitation 0.00 in 0.10 in - ()
Sea Level Pressure  
Sea Level Pressure 30.11 in    
Wind  
Wind Speed 5 mph ()    
Max Wind Speed 12 mph    
Max Gust Speed -    
Visibility 6.4 miles    
Events Fog , Rain    
Averages and records for this station are not official NWS values.
T = Trace of Precipitation, MM = Missing Value Source: Averaged Metar Reports

Daily Weather History Graph

Daily Weather History Graph

Search for Another Location

Airport or City:

Trip Planner

Search our weather history database for the weather conditions in past years. The results will help you decide how hot, cold, wet, or windy it might be!

Date:

Astronomy

Mar. 30, 2013 Rise Set
Actual Time 5:07 AM EET 5:40 PM EET
Civil Twilight 4:41 AM EET 6:06 PM EET
Nautical Twilight 4:10 AM EET 6:37 PM EET
Astronomical Twilight 3:38 AM EET 7:09 PM EET
Moon 9:19 PM EET (3/30) 6:49 AM EET (3/30)
Length of Visible Light 13h 25m
Length of Day
12h 32m
Waning Gibbous, 88% of the Moon is Illuminated
Mar 30
Waning Gibbous
Apr 3
Last Quarter
Apr 10
New
Apr 18
First Quarter
Apr 25
Full

Hourly Weather History & Observations

Time (EET) Temp. Windchill Dew Point Humidity Pressure Visibility Wind Dir Wind Speed Gust Speed Precip Events Conditions
12:20 AM 51.8 °F - 48.2 °F 88% 30.09 in 6.2 mi North 5.8 mph - N/A Rain Light Rain Showers
12:50 AM 51.8 °F - 48.2 °F 88% 30.09 in 6.2 mi NNW 11.5 mph - N/A   Mostly Cloudy
1:20 AM 51.8 °F - 48.2 °F 88% 30.06 in 6.2 mi North 8.1 mph - N/A   Mostly Cloudy
1:50 AM 51.8 °F - 48.2 °F 88% 30.09 in 6.2 mi NW 8.1 mph - N/A Rain Light Rain Showers
2:00 AM 51 °F - 48 °F 84% 30.05 in 12 mi NW 8.1 mph - - Rain Light Rain Showers
2:20 AM 50.0 °F - 48.2 °F 94% 30.06 in 6.2 mi NE 3.5 mph - N/A   Mostly Cloudy
2:50 AM 48.2 °F - 48.2 °F 100% 30.06 in 6.2 mi South 4.6 mph - N/A   Scattered Clouds
3:20 AM 48.2 °F - 46.4 °F 93% 30.09 in 6.2 mi ENE 3.5 mph - N/A   Scattered Clouds
3:50 AM 46.4 °F - 44.6 °F 93% 30.09 in 6.2 mi Variable 2.3 mph - N/A   Scattered Clouds
4:20 AM 48.2 °F - 46.4 °F 93% 30.09 in 6.2 mi ENE 5.8 mph - N/A   Scattered Clouds
4:50 AM 46.4 °F 45.2 °F 44.6 °F 93% 30.09 in 6.2 mi NE 3.5 mph - N/A   Scattered Clouds
5:09 AM 46.4 °F 45.2 °F 44.6 °F 93% 30.09 in 2.5 mi NE 3.5 mph - N/A Fog Patches of Fog
5:20 AM 46.4 °F - 46.4 °F 100% 30.12 in 0.7 mi NNE 2.3 mph - N/A Fog Patches of Fog
5:50 AM 46.4 °F 45.2 °F 46.4 °F 100% 30.12 in 6.2 mi NE 3.5 mph - N/A Fog Patches of Fog
6:20 AM 48.2 °F - 46.4 °F 93% 30.12 in - WNW 3.5 mph - N/A   Clear
6:50 AM 51.8 °F - 50.0 °F 94% 30.15 in - Calm Calm - N/A   Clear
7:20 AM 53.6 °F - 50.0 °F 88% 30.15 in 6.2 mi Variable 1.2 mph - N/A   Scattered Clouds
7:50 AM 53.6 °F - 50.0 °F 88% 30.15 in 6.2 mi East 4.6 mph - N/A   Mostly Cloudy
8:00 AM 53 °F - 50 °F 84% 30.16 in 12 mi East 4.6 mph - -   Partly Cloudy
8:20 AM 53.6 °F - 50.0 °F 88% 30.15 in 6.2 mi East 4.6 mph - N/A   Mostly Cloudy
8:50 AM 55.4 °F - 50.0 °F 82% 30.15 in 6.2 mi ENE 5.8 mph - N/A   Scattered Clouds
9:20 AM 55.4 °F - 50.0 °F 82% 30.18 in 6.2 mi NNE 3.5 mph - N/A   Scattered Clouds
9:50 AM 57.2 °F - 50.0 °F 77% 30.15 in 6.2 mi East 4.6 mph - N/A   Mostly Cloudy
10:20 AM 57.2 °F - 50.0 °F 77% 30.15 in 6.2 mi East 4.6 mph - N/A   Mostly Cloudy
10:50 AM 59.0 °F - 50.0 °F 72% 30.15 in 6.2 mi Variable 5.8 mph - N/A   Scattered Clouds
11:20 AM 60.8 °F - 51.8 °F 72% 30.15 in 6.2 mi Variable 4.6 mph - N/A   Scattered Clouds
11:50 AM 60.8 °F - 50.0 °F 68% 30.12 in 6.2 mi Variable 3.5 mph - N/A   Scattered Clouds
12:20 PM 62.6 °F - 50.0 °F 63% 30.12 in 6.2 mi East 4.6 mph - N/A   Scattered Clouds
12:50 PM 64.4 °F - 50.0 °F 59% 30.12 in 6.2 mi Variable 3.5 mph - N/A   Scattered Clouds
1:20 PM 62.6 °F - 50.0 °F 63% 30.12 in 6.2 mi Variable 4.6 mph - N/A   Scattered Clouds
1:50 PM 59.0 °F - 50.0 °F 72% 30.12 in 6.2 mi SW 11.5 mph - N/A   Scattered Clouds
2:00 PM 60 °F - 48 °F 55% 30.09 in 12 mi SW 11.5 mph - -   Partly Cloudy
2:20 PM 60.8 °F - 50.0 °F 68% 30.09 in 6.2 mi SW 4.6 mph - N/A   Scattered Clouds
2:50 PM 60.8 °F - 50.0 °F 68% 30.09 in 6.2 mi SW 5.8 mph - N/A   Scattered Clouds
3:20 PM 62.6 °F - 48.2 °F 59% 30.09 in 6.2 mi SSW 3.5 mph - N/A   Mostly Cloudy
3:50 PM 62.6 °F - 50.0 °F 63% 30.09 in 6.2 mi SSE 5.8 mph - N/A   Mostly Cloudy
4:20 PM 62.6 °F - 48.2 °F 59% 30.06 in 6.2 mi SSE 4.6 mph - N/A   Mostly Cloudy
4:50 PM 60.8 °F - 50.0 °F 68% 30.09 in 6.2 mi South 5.8 mph - N/A   Mostly Cloudy
5:20 PM 59.0 °F - 50.0 °F 72% 30.09 in 6.2 mi SSE 5.8 mph - N/A   Mostly Cloudy
5:50 PM 57.2 °F - 50.0 °F 77% 30.09 in 6.2 mi Calm Calm - N/A   Mostly Cloudy
6:20 PM 57.2 °F - 48.2 °F 72% 30.09 in - Calm Calm - N/A   Clear
6:50 PM 55.4 °F - 50.0 °F 82% 30.09 in - Calm Calm - N/A   Clear
7:20 PM 55.4 °F - 48.2 °F 77% 30.09 in - Calm Calm - N/A   Clear
7:50 PM 50.0 °F - 46.4 °F 87% 30.12 in - West 5.8 mph - N/A   Clear
8:00 PM 50 °F - 46 °F 80% 30.12 in 6 mi West 5.8 mph - -   Partly Cloudy
8:20 PM 50.0 °F - 46.4 °F 87% 30.12 in - Variable 2.3 mph - N/A   Clear
8:50 PM 50.0 °F - 46.4 °F 87% 30.12 in - Variable 1.2 mph - N/A   Clear
9:20 PM 48.2 °F - 46.4 °F 93% 30.12 in - WSW 5.8 mph - N/A   Clear
9:50 PM 48.2 °F - 44.6 °F 87% 30.12 in - WSW 5.8 mph - N/A   Clear
10:20 PM 46.4 °F 43.5 °F 44.6 °F 93% 30.12 in - West 5.8 mph - N/A   Clear
10:50 PM 46.4 °F - 44.6 °F 93% 30.12 in - WNW 2.3 mph - N/A   Clear
11:20 PM 46.4 °F 45.2 °F 46.4 °F 100% 30.12 in - West 3.5 mph - N/A   Clear
11:50 PM 46.4 °F 44.3 °F 44.6 °F 93% 30.12 in - West 4.6 mph - N/A   Clear